Regional Weather Roundup
Issued by NWS

Home | Current Version | Previous Version | Graphics & Text | Print | Product List | Glossary On
Versions: 1 2 3 4 5 6 7 8 9 10 11 12 13 14 15 16 17 18 19 20 21 22 23 24 25 26 27 28 29 30 31 32 33 34 35 36 37 38 39 40 41 42 43 44 45 46 47 48 49 50
055
ASUS44 KMEG 231010
RWRTN
TENNESSEE HOURLY STATE WEATHER ROUNDUP
NATIONAL WEATHER SERVICE MEMPHIS TN
500 AM CDT WED AUG 23 2017

TNZ002-004-019-021-049-052-054-088>092-231100-
WEST TENNESSEE

CITY           SKY/WX    TMP DP  RH WIND       PRES   REMARKS
MEMPHIS INTL   MOCLDY    76  72  87 N5        30.01R
NWS MEMPHIS      N/A     73 N/A N/A MISG        N/A
JACKSON        PTCLDY    69  69 100 CALM      30.02R FOG
DYERSBURG      PTCLDY    72  68  87 N5        30.04R
SOMERVILLE     PTCLDY    70  70 100 CALM      30.01R
COVINGTON      CLOUDY    72  72 100 CALM      30.01S
BOLIVAR        PTCLDY    70  68  94 CALM      30.01R
PARIS          CLEAR     68  66  94 N5        30.01R
HUNTINGDON     PTCLDY    70  68  94 N5        30.00S
LEXINGTON      FOG       70  70 100 CALM      30.01R VSB 0
SELMER         CLEAR     70  70 100 CALM      30.01R
SAVANNAH       CLOUDY    72  72 100 N3        30.00R FOG
$$

TNZ008-025-027-028-033-062-065-066-231100-
NORTH MIDDLE TENNESSEE

CITY           SKY/WX    TMP DP  RH WIND       PRES   REMARKS
NASHVILLE      MOCLDY    72  69  90 N7        30.00S
PORTLAND       CLOUDY    70  68  94 N3        30.00R FOG
CLARKSVILLE    CLEAR     67  65  93 N5        30.01R
SMYRNA         CLOUDY    72  70  93 N8        30.01R
COOKEVILLE     CLOUDY    72  70  94 CALM      29.99R
GALLATIN       MOCLDY    70  68  94 NW5       30.02S
CROSSVILLE     CLOUDY    69  67  93 NW3       30.03R
$$

TNZ061-075-076-078-094-096-097-231100-
SOUTH MIDDLE TENNESSEE

CITY           SKY/WX    TMP DP  RH WIND       PRES   REMARKS
FAYETTEVILLE   CLOUDY    72  70  94 N7        29.99F
TULLAHOMA      MOCLDY    70  66  88 NW5       30.02S
WINCHESTER     CLOUDY    72  70  94 CALM      30.01R
MCMINNVILLE    CLOUDY    72  72 100 CALM      30.01R
COLUMBIA       MOCLDY    72  72 100 CALM      30.00R
SHELBYVILLE    CLOUDY    72  70  94 NW5       30.00S
$$

TNZ017-018-042-046-047-231100-
NORTHEAST TENNESSEE

CITY           SKY/WX    TMP DP  RH WIND       PRES   REMARKS
TRI CITIES     CLOUDY    72  69  90 CALM      29.96S
ELIZABETHTON   CLOUDY    70  66  88 CALM      29.97R
$$

TNZ012-013-036-069-073-074-231100-
CENTRAL EAST TENNESSEE

CITY           SKY/WX    TMP DP  RH WIND       PRES   REMARKS
KNOXVILLE      CLOUDY    75  69  81 W8        29.95S
OAK RIDGE      CLOUDY    76  68  76 NW3       29.97R
DOWNTOWN KNOXV CLOUDY    75  72  88 CALM      29.94S
GATLINBURG     MOCLDY    75  66  73 W3        29.95S
MORRISTOWN     CLOUDY    75  70  83 W6        29.96R
JACKSBORO      CLOUDY    73  70  88 CALM      30.00R
$$

TNZ083-085-099-231100-
SOUTHEAST TENNESSEE

CITY           SKY/WX    TMP DP  RH WIND       PRES   REMARKS
CHATTANOOGA    MOCLDY    76  68  76 W6        29.97S
DAYTON         MOSUNNY   73  72  94 CALM      29.96S
$$

SKY/WX REPORTED AS FAIR MEANS FEW OR NO CLOUDS BELOW
12 THOUSAND FEET.





USA.gov is the U.S. government's official web portal to all federal, state and local government web resources and services.